User: anonymous   Login
Location: Newark
(35.0033°N, 81.0878°W)
Time: 18:57:16
(UTC+00:00)
Language:

Envisat - Orbit

View from above orbital plane
View from above orbital plane
View from above satellite
View from above satellite

Ground track
Ground track

The orbit data is extracted from the following two-line orbital elements,

1 27386U 02009A   21163.51657069  .00000007  00000-0  15691-4 0  9992
2 27386  98.1483 157.8261 0001262  89.6785  20.5005 14.38029353 10297
Epoch (UTC): 12 June 2021 12:23:51
Eccentricity: 0.0001262
inclination: 98.1483°
perigee height: 764 km
apogee height: 766 km
right ascension of ascending node: 157.8261°
argument of perigee: 89.6785°
revolutions per day: 14.38029353
mean anomaly at epoch: 20.5005°
orbit number at epoch: 1029

The dashed part of the orbit path shows where the satellite is in the earth's shadow,  

DLR